EST,Max TemperatureF,Mean TemperatureF,Min TemperatureF,Max Dew PointF,MeanDew PointF,Min DewpointF,Max Humidity, Mean Humidity, Min Humidity, Max Sea Level PressureIn, Mean Sea Level PressureIn, Min Sea Level PressureIn, Max VisibilityMiles, Mean VisibilityMiles, Min VisibilityMiles, Max Wind SpeedMPH, Mean Wind SpeedMPH, Max Gust SpeedMPH,PrecipitationIn, CloudCover, Events, WindDirDegrees
2013-1-1,33,13,-7,27,6,-10,90,76,61,30.03,29.92,29.70,10,9,2,25,10,33,T,4,Snow,277
2013-1-2,17,0,-18,10,-2,-21,87,69,51,30.35,30.10,29.88,10,8,2,17,7,23,T,4,Snow,273
2013-1-3,10,-4,-19,5,-4,-21,91,83,75,30.34,30.06,29.88,10,5,1,7,1,8,0.01,7,Snow,86
2013-1-4,34,22,10,27,23,7,88,79,69,29.90,29.78,29.72,10,7,1,30,17,37,T,8,Snow,231
2013-1-5,33,18,2,27,14,2,85,69,52,30.30,30.13,29.83,10,9,1,24,7,32,T,4,Snow,279
2013-1-6,29,23,17,27,20,11,92,83,73,30.12,29.95,29.86,10,2,0,13,5,17,0.17,8,Fog-Snow,39
2013-1-7,26,16,6,20,12,3,87,79,71,30.45,30.31,30.14,10,10,9,15,5,23,0.00,7,,250
2013-1-8,36,31,26,29,25,21,92,81,69,30.37,30.25,30.13,10,9,5,22,10,28,0.00,6,,217
2013-1-9,43,27,10,33,21,9,92,76,59,30.33,30.14,29.86,10,5,0,26,9,38,0.02,4,Fog-Rain,216
2013-1-10,38,27,16,27,22,15,92,76,59,30.60,30.48,30.14,10,10,10,23,8,31,0.00,1,,261
2013-1-11,34,24,14,32,26,12,92,82,72,30.53,30.18,30.00,10,8,2,14,5,16,0.04,5,Rain,57
2013-1-12,50,42,33,43,36,32,100,88,76,30.04,30.00,29.97,10,5,2,12,4,15,T,5,Rain,195
2013-1-13,54,45,35,49,39,34,100,92,83,30.04,29.88,29.75,10,3,0,16,5,21,0.21,5,Fog-Rain,66
2013-1-14,46,39,31,45,34,22,100,80,59,30.34,30.00,29.71,10,8,0,23,10,30,0.07,8,Fog-Rain,251
2013-1-15,32,26,19,23,19,16,88,69,56,30.40,30.33,30.25,10,10,10,13,5,17,0.00,5,,243
2013-1-16,36,30,24,28,25,18,88,79,70,30.23,29.91,29.73,10,10,4,20,6,28,T,6,Snow,199
2013-1-17,35,15,-6,30,14,-13,89,70,50,30.30,29.96,29.75,10,6,1,28,9,36,T,5,Snow,263
2013-1-18,24,8,-9,13,-1,-14,83,63,43,30.43,30.31,30.13,10,9,2,20,6,30,T,4,Snow,210
2013-1-19,43,34,24,34,26,11,92,70,48,30.09,29.89,29.57,10,7,1,20,11,28,T,8,Rain-Snow,209
2013-1-20,47,27,7,34,20,-2,82,64,45,30.08,29.59,29.28,10,9,2,39,18,54,0.07,7,Rain-Snow,247
2013-1-21,8,5,1,0,-4,-8,76,68,60,30.14,30.04,29.90,10,10,6,15,6,21,0.00,4,,343
2013-1-22,8,2,-4,1,-4,-15,86,69,51,30.22,30.00,29.86,10,6,2,21,8,26,T,7,Snow,335
2013-1-23,-4,-8,-13,-15,-19,-22,79,65,50,30.34,30.27,30.18,10,10,8,14,6,17,0.00,1,,281
2013-1-24,5,-3,-11,-10,-13,-16,79,65,51,30.51,30.38,30.26,10,10,10,21,10,26,0.00,0,,264
2013-1-25,10,3,-5,-4,-7,-11,79,67,55,30.50,30.35,30.19,10,10,10,15,5,20,0.00,2,,271
2013-1-26,14,6,-2,4,-1,-7,87,70,53,30.41,30.29,30.19,10,10,10,12,4,15,0.00,2,,246
2013-1-27,16,8,0,5,0,-4,83,65,46,30.62,30.54,30.43,10,10,10,10,4,14,0.00,1,,274
2013-1-28,22,18,13,19,15,4,92,73,54,30.48,30.09,29.98,10,3,0,14,7,18,0.15,8,Fog-Snow,57
2013-1-29,31,19,7,30,18,6,100,87,74,30.18,30.01,29.79,10,6,1,13,6,16,T,7,Rain,56
2013-1-30,63,47,31,52,40,30,100,78,56,29.78,29.42,29.14,10,4,0,30,8,40,0.09,5,Fog-Rain,127
2013-1-31,53,33,13,50,27,4,96,73,49,29.63,29.13,28.84,10,7,1,38,21,54,0.61,8,Rain-Snow,240